Private Wetterstation Wechselburg
Wetterdaten: Freitag, 04.12.2020
Datum Zeit Temp. +2m Bodentemp. Temp.+5cm Temp. Wind Windchill X Diff Temp. Feuchte +2m Feuchte +5cm Luftdruck Regen Wind Richtung Richtung Sonnenschein Taupunkt Windchill Windben
04.12.2020 00:00 -1,7 C 3,6 C -3,0 C -2,3 C -3,4 C 0,0 C 79 % 85 % 1001,1 hPa 0,0 l/m 2,6 km/h (1 Bft) O-NO 67 0 min -4,8 C -3,4 C 4,8 km/h (1 Bft)
04.12.2020 00:05 -1,7 C 3,6 C -3,0 C -2,4 C -3,8 C 0,0 C 79 % 85 % 1001,1 hPa 0,0 l/m 3,2 km/h (1 Bft) O-NO 67 0 min -4,8 C -3,8 C 2,3 km/h (1 Bft)
04.12.2020 00:10 -1,9 C 3,6 C -3,0 C -2,5 C -3,8 C 0,0 C 79 % 85 % 1001,1 hPa 0,0 l/m 3,1 km/h (1 Bft) O-NO 67 0 min -5,0 C -3,8 C 3,4 km/h (1 Bft)
04.12.2020 00:15 -1,9 C 3,6 C -3,1 C -2,5 C -3,7 C 0,0 C 79 % 85 % 1001,1 hPa 0,0 l/m 2,9 km/h (1 Bft) O-NO 67 0 min -5,0 C -3,7 C 3,5 km/h (1 Bft)
04.12.2020 00:20 -1,9 C 3,6 C -3,1 C -2,5 C -3,8 C 0,0 C 79 % 86 % 1001,1 hPa 0,0 l/m 3,1 km/h (1 Bft) NO 45 0 min -5,0 C -3,8 C 3,7 km/h (1 Bft)
04.12.2020 00:25 -1,9 C 3,6 C -3,0 C -2,5 C -3,6 C 0,0 C 79 % 86 % 1001,1 hPa 0,0 l/m 2,7 km/h (1 Bft) NO 45 0 min -5,0 C -3,6 C 3,4 km/h (1 Bft)
04.12.2020 00:30 -2,0 C 3,6 C -3,0 C -2,5 C -3,4 C 0,0 C 79 % 86 % 1000,5 hPa 0,0 l/m 2,6 km/h (1 Bft) NO 45 0 min -5,1 C -3,4 C 2,7 km/h (1 Bft)
04.12.2020 00:35 -1,9 C 3,6 C -2,9 C -2,5 C -3,7 C 0,0 C 80 % 86 % 1000,5 hPa 0,0 l/m 2,9 km/h (1 Bft) NO 45 0 min -4,9 C -3,7 C 3,2 km/h (1 Bft)
04.12.2020 00:40 -1,9 C 3,6 C -3,0 C -2,5 C -3,8 C 0,0 C 80 % 86 % 1000,5 hPa 0,0 l/m 3,2 km/h (1 Bft) O-NO 67 0 min -4,9 C -3,8 C 5,0 km/h (1 Bft)
04.12.2020 00:45 -1,9 C 3,6 C -3,0 C -2,7 C -4,2 C 0,0 C 80 % 86 % 1000,5 hPa 0,0 l/m 3,9 km/h (1 Bft) O-NO 67 0 min -4,9 C -4,2 C 4,5 km/h (1 Bft)
04.12.2020 00:50 -1,9 C 3,6 C -3,1 C -2,7 C -4,3 C 0,0 C 80 % 86 % 999,9 hPa 0,0 l/m 4,0 km/h (1 Bft) O-NO 67 0 min -4,9 C -4,3 C 3,9 km/h (1 Bft)
04.12.2020 00:55 -1,9 C 3,6 C -3,2 C -2,8 C -4,6 C 0,0 C 80 % 86 % 999,9 hPa 0,0 l/m 4,0 km/h (1 Bft) NO 45 0 min -4,9 C -4,6 C 4,2 km/h (1 Bft)
04.12.2020 01:00 -2,1 C 3,6 C -3,3 C -2,9 C -4,6 C 0,0 C 80 % 86 % 999,9 hPa 0,0 l/m 4,0 km/h (1 Bft) NO 45 0 min -5,1 C -4,6 C 4,2 km/h (1 Bft)
04.12.2020 01:05 -2,1 C 3,6 C -3,3 C -2,8 C -4,1 C 0,0 C 80 % 86 % 999,9 hPa 0,0 l/m 3,2 km/h (1 Bft) NO 45 0 min -5,1 C -4,1 C 0,0 km/h (0 Bft)
04.12.2020 01:10 -2,3 C 3,6 C -3,5 C -2,7 C -3,6 C 0,0 C 80 % 86 % 1000,1 hPa 0,0 l/m 1,6 km/h (1 Bft) NO 45 0 min -5,3 C -3,6 C 0,0 km/h (0 Bft)
04.12.2020 01:15 -2,5 C 3,6 C -3,9 C -3,1 C -4,2 C 0,0 C 79 % 86 % 1000,1 hPa 0,0 l/m 0,0 km/h (0 Bft) NO 45 0 min -5,6 C -4,2 C 0,0 km/h (0 Bft)
04.12.2020 01:20 -2,7 C 3,6 C -4,1 C -3,3 C -4,4 C 0,0 C 79 % 86 % 1000,1 hPa 0,0 l/m 0,0 km/h (0 Bft) NO 45 0 min -5,8 C -4,4 C 0,0 km/h (0 Bft)
04.12.2020 01:25 -2,9 C 3,6 C -4,1 C -3,5 C -4,6 C 0,0 C 79 % 86 % 1000,1 hPa 0,0 l/m 0,0 km/h (0 Bft) NO 45 0 min -6,0 C -4,6 C 0,0 km/h (0 Bft)
04.12.2020 01:30 -2,9 C 3,6 C -4,2 C -3,5 C -4,6 C 0,0 C 79 % 86 % 1000,0 hPa 0,0 l/m 0,0 km/h (0 Bft) NO 45 0 min -6,0 C -4,6 C 0,0 km/h (0 Bft)
04.12.2020 01:35 -3,1 C 3,6 C -4,4 C -3,7 C -4,8 C 0,0 C 80 % 86 % 1000,0 hPa 0,0 l/m 0,0 km/h (0 Bft) NO 45 0 min -6,0 C -4,8 C 0,0 km/h (0 Bft)
04.12.2020 01:40 -3,2 C 3,6 C -4,4 C -3,8 C -4,9 C 0,0 C 80 % 87 % 1000,0 hPa 0,0 l/m 0,0 km/h (0 Bft) NO 45 0 min -6,1 C -4,9 C 0,0 km/h (0 Bft)
04.12.2020 01:45 -3,2 C 3,6 C -4,5 C -3,8 C -5,0 C 0,0 C 80 % 87 % 1000,0 hPa 0,0 l/m 0,0 km/h (0 Bft) NO 45 0 min -6,1 C -5,0 C 0,0 km/h (0 Bft)
04.12.2020 01:50 -3,3 C 3,6 C -4,5 C -3,9 C -5,0 C 0,0 C 80 % 87 % 999,2 hPa 0,0 l/m 0,0 km/h (0 Bft) NO 45 0 min -6,2 C -5,0 C 0,0 km/h (0 Bft)
04.12.2020 01:55 -3,3 C 3,6 C -4,6 C -3,9 C -5,0 C 0,0 C 81 % 87 % 999,2 hPa 0,0 l/m 0,0 km/h (0 Bft) NO 45 0 min -6,1 C -5,0 C 0,0 km/h (0 Bft)
04.12.2020 02:00 -3,3 C 3,6 C -4,6 C -3,9 C -5,0 C 0,0 C 81 % 87 % 999,2 hPa 0,0 l/m 0,0 km/h (0 Bft) NO 45 0 min -6,1 C -5,0 C 0,0 km/h (0 Bft)
04.12.2020 02:05 -3,3 C 3,6 C -4,5 C -3,9 C -5,0 C 0,0 C 81 % 87 % 999,2 hPa 0,0 l/m 0,0 km/h (0 Bft) O 90 0 min -6,1 C -5,0 C 0,0 km/h (0 Bft)
04.12.2020 02:10 -3,4 C 3,6 C -4,5 C -3,9 C -4,9 C 0,0 C 82 % 87 % 999,1 hPa 0,0 l/m 0,0 km/h (0 Bft) N-NO 22 0 min -6,0 C -4,9 C 2,6 km/h (1 Bft)
04.12.2020 02:15 -3,1 C 3,6 C -4,4 C -3,6 C -4,5 C 0,0 C 82 % 88 % 999,1 hPa 0,0 l/m 0,2 km/h (0 Bft) N-NO 22 0 min -5,7 C -4,5 C 0,0 km/h (0 Bft)
04.12.2020 02:20 -3,1 C 3,6 C -4,4 C -3,6 C -4,5 C 0,0 C 82 % 88 % 999,1 hPa 0,0 l/m 0,2 km/h (0 Bft) N-NO 22 0 min -5,7 C -4,5 C 0,0 km/h (0 Bft)
04.12.2020 02:25 -3,1 C 3,6 C -4,4 C -3,5 C -4,4 C 0,0 C 82 % 88 % 999,1 hPa 0,0 l/m 0,0 km/h (0 Bft) N-NO 22 0 min -5,7 C -4,4 C 1,6 km/h (1 Bft)
04.12.2020 02:30 -3,1 C 3,6 C -4,4 C -3,5 C -4,3 C 0,0 C 82 % 88 % 999,1 hPa 0,0 l/m 0,2 km/h (0 Bft) N-NO 22 0 min -5,7 C -4,3 C 0,0 km/h (0 Bft)
04.12.2020 02:35 -3,2 C 3,6 C -4,5 C -3,6 C -4,3 C 0,0 C 82 % 88 % 999,1 hPa 0,0 l/m 0,2 km/h (0 Bft) N-NO 22 0 min -5,8 C -4,3 C 0,0 km/h (0 Bft)
04.12.2020 02:40 -3,1 C 3,5 C -4,4 C -3,5 C -4,2 C 0,0 C 82 % 88 % 999,1 hPa 0,0 l/m 0,3 km/h (0 Bft) N-NO 22 0 min -5,7 C -4,2 C 0,0 km/h (0 Bft)
04.12.2020 02:45 -3,1 C 3,5 C -4,4 C -3,5 C -4,3 C 0,0 C 82 % 88 % 999,1 hPa 0,0 l/m 0,3 km/h (0 Bft) N-NO 22 0 min -5,7 C -4,3 C 0,0 km/h (0 Bft)
04.12.2020 02:50 -3,1 C 3,5 C -4,5 C -3,5 C -4,4 C 0,0 C 82 % 88 % 999,1 hPa 0,0 l/m 0,0 km/h (0 Bft) N-NO 22 0 min -5,7 C -4,4 C 0,0 km/h (0 Bft)
04.12.2020 02:55 -3,1 C 3,5 C -4,3 C -3,5 C -4,4 C 0,0 C 82 % 88 % 999,1 hPa 0,0 l/m 0,3 km/h (0 Bft) N-NO 22 0 min -5,7 C -4,4 C 2,3 km/h (1 Bft)
04.12.2020 03:00 -2,9 C 3,5 C -4,1 C -3,3 C -4,2 C 0,0 C 82 % 89 % 999,1 hPa 0,0 l/m 1,4 km/h (1 Bft) N-NO 22 0 min -5,5 C -4,2 C 3,2 km/h (1 Bft)
04.12.2020 03:05 -2,9 C 3,5 C -3,7 C -3,3 C -4,1 C 0,0 C 82 % 88 % 999,1 hPa 0,0 l/m 2,3 km/h (1 Bft) N-NO 22 0 min -5,5 C -4,1 C 2,3 km/h (1 Bft)
04.12.2020 03:10 -2,8 C 3,5 C -3,7 C -3,2 C -3,9 C 0,0 C 82 % 88 % 999,2 hPa 0,0 l/m 1,8 km/h (1 Bft) N-NO 22 0 min -5,4 C -3,9 C 1,8 km/h (1 Bft)
04.12.2020 03:15 -2,8 C 3,5 C -3,7 C -3,1 C -3,8 C 0,0 C 82 % 88 % 999,2 hPa 0,0 l/m 2,1 km/h (1 Bft) N-NO 22 0 min -5,4 C -3,8 C 3,9 km/h (1 Bft)
04.12.2020 03:20 -2,7 C 3,5 C -3,6 C -3,3 C -4,4 C 0,0 C 82 % 88 % 999,2 hPa 0,0 l/m 2,7 km/h (1 Bft) NO 45 0 min -5,3 C -4,4 C 4,3 km/h (1 Bft)
04.12.2020 03:25 -2,5 C 3,5 C -3,5 C -3,3 C -4,9 C 0,0 C 82 % 88 % 999,2 hPa 0,0 l/m 4,0 km/h (1 Bft) NO 45 0 min -5,1 C -4,9 C 6,1 km/h (2 Bft)
04.12.2020 03:30 -2,5 C 3,5 C -3,5 C -3,3 C -4,8 C 0,0 C 82 % 88 % 998,2 hPa 0,0 l/m 4,0 km/h (1 Bft) NO 45 0 min -5,1 C -4,8 C 3,9 km/h (1 Bft)
04.12.2020 03:35 -2,4 C 3,5 C -3,5 C -3,0 C -4,2 C 0,0 C 82 % 87 % 998,2 hPa 0,0 l/m 3,5 km/h (1 Bft) O-NO 67 0 min -5,0 C -4,2 C 2,9 km/h (1 Bft)
04.12.2020 03:40 -2,3 C 3,5 C -3,4 C -2,8 C -3,9 C 0,0 C 82 % 87 % 998,2 hPa 0,0 l/m 3,1 km/h (1 Bft) O-NO 67 0 min -4,9 C -3,9 C 2,9 km/h (1 Bft)
04.12.2020 03:45 -2,2 C 3,5 C -3,5 C -2,5 C -3,1 C 0,0 C 82 % 87 % 998,2 hPa 0,0 l/m 1,9 km/h (1 Bft) N-NO 22 0 min -4,8 C -3,1 C 4,5 km/h (1 Bft)
04.12.2020 03:50 -2,1 C 3,5 C -3,4 C -2,4 C -2,9 C 0,0 C 82 % 87 % 997,9 hPa 0,0 l/m 2,1 km/h (1 Bft) O-SO 112 0 min -4,7 C -2,9 C 1,6 km/h (1 Bft)
04.12.2020 03:55 -2,0 C 3,5 C -3,3 C -2,6 C -3,7 C 0,0 C 82 % 87 % 997,9 hPa 0,0 l/m 3,1 km/h (1 Bft) O-NO 67 0 min -4,7 C -3,7 C 8,0 km/h (2 Bft)
04.12.2020 04:00 -1,9 C 3,5 C -3,2 C -2,4 C -3,3 C 0,0 C 81 % 87 % 997,9 hPa 0,0 l/m 2,9 km/h (1 Bft) NO 45 0 min -4,7 C -3,3 C 2,6 km/h (1 Bft)
04.12.2020 04:05 -1,9 C 3,5 C -3,2 C -2,3 C -3,2 C 0,0 C 81 % 87 % 997,9 hPa 0,0 l/m 2,6 km/h (1 Bft) O-NO 67 0 min -4,7 C -3,2 C 4,3 km/h (1 Bft)
04.12.2020 04:10 -1,9 C 3,5 C -3,2 C -2,2 C -2,8 C 0,0 C 81 % 87 % 997,9 hPa 0,0 l/m 2,1 km/h (1 Bft) NO 45 0 min -4,7 C -2,8 C 2,1 km/h (1 Bft)
04.12.2020 04:15 -1,9 C 3,5 C -3,3 C -2,3 C -3,1 C 0,0 C 80 % 87 % 997,9 hPa 0,0 l/m 1,0 km/h (0 Bft) NO 45 0 min -4,9 C -3,1 C 0,0 km/h (0 Bft)
04.12.2020 04:20 -1,9 C 3,5 C -3,3 C -2,3 C -3,1 C 0,0 C 80 % 87 % 997,9 hPa 0,0 l/m 1,0 km/h (0 Bft) O 90 0 min -4,9 C -3,1 C 4,2 km/h (1 Bft)
04.12.2020 04:25 -1,7 C 3,5 C -3,2 C -2,4 C -3,9 C 0,0 C 80 % 87 % 997,9 hPa 0,0 l/m 3,2 km/h (1 Bft) O-NO 67 0 min -4,7 C -3,9 C 9,8 km/h (2 Bft)
04.12.2020 04:30 -1,7 C 3,5 C -3,0 C -2,5 C -4,1 C 0,0 C 80 % 87 % 997,2 hPa 0,0 l/m 3,7 km/h (1 Bft) N-NO 22 0 min -4,7 C -4,1 C 3,4 km/h (1 Bft)
04.12.2020 04:35 -1,7 C 3,5 C -3,1 C -2,3 C -3,4 C 0,0 C 80 % 87 % 997,2 hPa 0,0 l/m 2,6 km/h (1 Bft) N-NO 22 0 min -4,7 C -3,4 C 2,9 km/h (1 Bft)
04.12.2020 04:40 -1,7 C 3,5 C -3,2 C -2,1 C -3,0 C 0,0 C 80 % 87 % 997,2 hPa 0,0 l/m 2,1 km/h (1 Bft) N-NO 22 0 min -4,7 C -3,0 C 2,1 km/h (1 Bft)
04.12.2020 04:45 -1,9 C 3,5 C -3,3 C -2,3 C -3,1 C 0,0 C 80 % 87 % 997,2 hPa 0,0 l/m 1,9 km/h (1 Bft) N-NO 22 0 min -4,9 C -3,1 C 3,4 km/h (1 Bft)
04.12.2020 04:50 -1,9 C 3,5 C -3,3 C -2,5 C -3,8 C 0,0 C 80 % 87 % 997,4 hPa 0,0 l/m 2,9 km/h (1 Bft) NO 45 0 min -4,9 C -3,8 C 6,6 km/h (2 Bft)
04.12.2020 04:55 -1,7 C 3,5 C -3,1 C -2,6 C -4,3 C 0,0 C 80 % 87 % 997,4 hPa 0,0 l/m 4,0 km/h (1 Bft) N 360 0 min -4,7 C -4,3 C 10,1 km/h (2 Bft)
04.12.2020 05:00 -1,7 C 3,5 C -3,0 C -2,4 C -3,8 C 0,0 C 80 % 87 % 997,4 hPa 0,0 l/m 3,4 km/h (1 Bft) O-NO 67 0 min -4,7 C -3,8 C 0,0 km/h (0 Bft)
04.12.2020 05:05 -1,9 C 3,5 C -3,1 C -2,4 C -3,4 C 0,0 C 80 % 87 % 997,4 hPa 0,0 l/m 2,6 km/h (1 Bft) O-SO 112 0 min -4,9 C -3,4 C 1,9 km/h (1 Bft)
04.12.2020 05:10 -1,9 C 3,5 C -3,2 C -2,3 C -3,1 C 0,0 C 80 % 87 % 997,2 hPa 0,0 l/m 1,1 km/h (1 Bft) O-NO 67 0 min -4,9 C -3,1 C 0,0 km/h (0 Bft)
04.12.2020 05:15 -1,9 C 3,5 C -3,1 C -2,3 C -3,1 C 0,0 C 80 % 87 % 997,2 hPa 0,0 l/m 1,3 km/h (1 Bft) O-SO 112 0 min -4,9 C -3,1 C 1,9 km/h (1 Bft)
04.12.2020 05:20 -1,9 C 3,5 C -3,1 C -2,3 C -3,1 C 0,0 C 80 % 87 % 997,2 hPa 0,0 l/m 1,3 km/h (1 Bft) NO 45 0 min -4,9 C -3,1 C 5,5 km/h (1 Bft)
04.12.2020 05:25 -1,9 C 3,5 C -2,9 C -2,3 C -3,1 C 0,0 C 81 % 87 % 997,2 hPa 0,0 l/m 1,4 km/h (1 Bft) NO 45 0 min -4,7 C -3,1 C 6,6 km/h (2 Bft)
04.12.2020 05:30 -1,7 C 3,5 C -3,0 C -2,2 C -3,1 C 0,0 C 81 % 87 % 997,1 hPa 0,0 l/m 1,3 km/h (1 Bft) NW 315 0 min -4,5 C -3,1 C 1,8 km/h (1 Bft)
04.12.2020 05:35 -1,8 C 3,5 C -3,0 C -2,2 C -3,1 C 0,0 C 81 % 87 % 997,1 hPa 0,0 l/m 1,0 km/h (0 Bft) W 270 0 min -4,6 C -3,1 C 0,0 km/h (0 Bft)
04.12.2020 05:40 -1,7 C 3,5 C -3,0 C -2,2 C -3,1 C 0,0 C 81 % 87 % 997,1 hPa 0,0 l/m 1,0 km/h (0 Bft) O-NO 67 0 min -4,5 C -3,1 C 1,8 km/h (1 Bft)
04.12.2020 05:45 -1,7 C 3,5 C -3,0 C -2,1 C -2,9 C 0,0 C 81 % 88 % 997,1 hPa 0,0 l/m 1,6 km/h (1 Bft) O-NO 67 0 min -4,5 C -2,9 C 0,0 km/h (0 Bft)
04.12.2020 05:50 -1,7 C 3,5 C -2,9 C -2,1 C -2,9 C 0,0 C 81 % 88 % 997,3 hPa 0,0 l/m 1,6 km/h (1 Bft) N-NW 337 0 min -4,5 C -2,9 C 0,0 km/h (0 Bft)
04.12.2020 05:55 -1,5 C 3,5 C -2,8 C -2,0 C -2,9 C 0,0 C 81 % 88 % 997,3 hPa 0,0 l/m 1,1 km/h (1 Bft) O-NO 67 0 min -4,3 C -2,9 C 3,1 km/h (1 Bft)
04.12.2020 06:00 -1,5 C 3,5 C -2,7 C -1,9 C -2,6 C 0,0 C 82 % 88 % 997,3 hPa 0,0 l/m 1,4 km/h (1 Bft) N-NO 22 0 min -4,2 C -2,6 C 1,8 km/h (1 Bft)
04.12.2020 06:05 -1,5 C 3,5 C -2,5 C -1,9 C -2,6 C 0,0 C 82 % 88 % 997,3 hPa 0,0 l/m 1,6 km/h (1 Bft) O-SO 112 0 min -4,2 C -2,6 C 0,0 km/h (0 Bft)
04.12.2020 06:10 -1,5 C 3,5 C -2,5 C -1,8 C -2,5 C 0,0 C 82 % 88 % 997,0 hPa 0,0 l/m 0,8 km/h (0 Bft) O-SO 112 0 min -4,2 C -2,5 C 0,0 km/h (0 Bft)
04.12.2020 06:15 -1,5 C 3,5 C -2,5 C -1,8 C -2,5 C 0,0 C 82 % 88 % 997,0 hPa 0,0 l/m 0,8 km/h (0 Bft) O-SO 112 0 min -4,2 C -2,5 C 0,0 km/h (0 Bft)
04.12.2020 06:20 -1,3 C 3,5 C -2,3 C -1,7 C -2,5 C 0,0 C 82 % 88 % 997,0 hPa 0,0 l/m 0,8 km/h (0 Bft) O-SO 112 0 min -4,0 C -2,5 C 1,8 km/h (1 Bft)
04.12.2020 06:25 -1,3 C 3,5 C -2,5 C -1,7 C -2,5 C 0,0 C 82 % 88 % 997,0 hPa 0,0 l/m 0,2 km/h (0 Bft) O-SO 112 0 min -4,0 C -2,5 C 0,0 km/h (0 Bft)
04.12.2020 06:30 -1,5 C 3,5 C -2,4 C -1,8 C -2,5 C 0,0 C 82 % 88 % 996,9 hPa 0,0 l/m 0,2 km/h (0 Bft) O-SO 112 0 min -4,2 C -2,5 C 1,8 km/h (1 Bft)
04.12.2020 06:35 -1,3 C 3,5 C -2,4 C -1,7 C -2,5 C 0,0 C 82 % 88 % 996,9 hPa 0,0 l/m 0,5 km/h (0 Bft) O-SO 112 0 min -4,0 C -2,5 C 2,7 km/h (1 Bft)
04.12.2020 06:40 -1,3 C 3,5 C -2,4 C -1,7 C -2,5 C 0,0 C 82 % 88 % 996,9 hPa 0,0 l/m 0,5 km/h (0 Bft) W 270 0 min -4,0 C -2,5 C 0,0 km/h (0 Bft)
04.12.2020 06:45 -1,3 C 3,5 C -2,4 C -1,7 C -2,5 C 0,0 C 82 % 88 % 996,9 hPa 0,0 l/m 0,2 km/h (0 Bft) W 270 0 min -4,0 C -2,5 C 0,0 km/h (0 Bft)
04.12.2020 06:50 -1,3 C 3,5 C -2,2 C -1,6 C -2,3 C 0,0 C 82 % 88 % 997,1 hPa 0,0 l/m 0,5 km/h (0 Bft) O-NO 67 0 min -4,0 C -2,3 C 2,7 km/h (1 Bft)
04.12.2020 06:55 -1,2 C 3,5 C -2,0 C -1,5 C -2,0 C 0,0 C 82 % 88 % 997,1 hPa 0,0 l/m 1,1 km/h (1 Bft) NW 315 0 min -3,9 C -2,0 C 3,2 km/h (1 Bft)
04.12.2020 07:00 -1,1 C 3,5 C -2,0 C -1,4 C -1,9 C 0,0 C 82 % 88 % 997,1 hPa 0,0 l/m 1,1 km/h (1 Bft) N-NO 22 0 min -3,8 C -1,9 C 0,0 km/h (0 Bft)
04.12.2020 07:05 -0,9 C 3,5 C -1,9 C -1,2 C -1,8 C 0,0 C 82 % 88 % 997,1 hPa 0,0 l/m 0,8 km/h (0 Bft) NO 45 0 min -3,6 C -1,8 C 0,0 km/h (0 Bft)
04.12.2020 07:10 -0,9 C 3,5 C -1,8 C -1,2 C -1,7 C 0,0 C 82 % 88 % 996,8 hPa 0,0 l/m 0,5 km/h (0 Bft) N-NO 22 0 min -3,6 C -1,7 C 2,6 km/h (1 Bft)
04.12.2020 07:15 -0,9 C 3,5 C -1,8 C -1,1 C -1,6 C 0,0 C 82 % 88 % 996,8 hPa 0,0 l/m 0,6 km/h (0 Bft) N-NO 22 0 min -3,6 C -1,6 C 0,0 km/h (0 Bft)
04.12.2020 07:20 -0,8 C 3,5 C -1,6 C -1,0 C -1,5 C 0,0 C 83 % 88 % 996,8 hPa 0,0 l/m 1,6 km/h (1 Bft) NO 45 0 min -3,3 C -1,5 C 5,0 km/h (1 Bft)
04.12.2020 07:25 -0,5 C 3,5 C -1,4 C -0,7 C -1,2 C 0,0 C 82 % 88 % 996,8 hPa 0,0 l/m 2,3 km/h (1 Bft) N-NO 22 0 min -3,2 C -1,2 C 1,6 km/h (1 Bft)
04.12.2020 07:30 -0,5 C 3,5 C -1,4 C -0,8 C -1,3 C 0,0 C 82 % 87 % 996,8 hPa 0,0 l/m 1,9 km/h (1 Bft) S-SW 202 0 min -3,2 C -1,3 C 0,0 km/h (0 Bft)
04.12.2020 07:35 -0,5 C 3,5 C -1,3 C -0,8 C -1,3 C 0,0 C 82 % 87 % 996,8 hPa 0,0 l/m 1,8 km/h (1 Bft) NW 315 0 min -3,2 C -1,3 C 4,5 km/h (1 Bft)
04.12.2020 07:40 -0,5 C 3,5 C -1,2 C -0,7 C -1,1 C 0,0 C 82 % 87 % 996,8 hPa 0,0 l/m 1,8 km/h (1 Bft) O-NO 67 0 min -3,2 C -1,1 C 0,0 km/h (0 Bft)
04.12.2020 07:45 -0,3 C 3,5 C -1,2 C -0,6 C -1,2 C 0,0 C 82 % 87 % 996,8 hPa 0,0 l/m 1,8 km/h (1 Bft) N-NO 22 0 min -3,0 C -1,2 C 4,2 km/h (1 Bft)
04.12.2020 07:50 -0,4 C 3,5 C -1,2 C -0,6 C -1,1 C 0,0 C 82 % 87 % 997,1 hPa 0,0 l/m 1,6 km/h (1 Bft) O-NO 67 0 min -3,1 C -1,1 C 0,0 km/h (0 Bft)
04.12.2020 07:55 -0,4 C 3,3 C -1,1 C -0,6 C -1,0 C 0,0 C 82 % 87 % 997,1 hPa 0,0 l/m 1,3 km/h (1 Bft) O-SO 112 0 min -3,1 C -1,0 C 1,9 km/h (1 Bft)
04.12.2020 08:00 -0,3 C 3,5 C -0,9 C -0,5 C -0,9 C 0,0 C 82 % 87 % 997,1 hPa 0,0 l/m 1,4 km/h (1 Bft) O 90 0 min -3,0 C -0,9 C 2,3 km/h (1 Bft)
04.12.2020 08:05 -0,3 C 3,5 C -0,8 C -0,4 C -0,7 C 0,0 C 81 % 86 % 997,1 hPa 0,0 l/m 1,8 km/h (1 Bft) NO 45 0 min -3,2 C -0,7 C 1,8 km/h (1 Bft)
04.12.2020 08:10 -0,1 C 3,4 C -0,7 C -0,3 C -0,6 C 0,0 C 81 % 86 % 997,1 hPa 0,0 l/m 2,1 km/h (1 Bft) O 90 0 min -3,0 C -0,6 C 5,1 km/h (1 Bft)
04.12.2020 08:15 -0,1 C 3,4 C -0,5 C -0,3 C -0,6 C 0,0 C 81 % 86 % 997,1 hPa 0,0 l/m 2,6 km/h (1 Bft) NO 45 0 min -3,0 C -0,6 C 4,0 km/h (1 Bft)
04.12.2020 08:20 -0,1 C 3,4 C -0,5 C -0,2 C -0,4 C 0,0 C 81 % 86 % 997,1 hPa 0,0 l/m 2,4 km/h (1 Bft) N-NO 22 0 min -3,0 C -0,4 C 3,2 km/h (1 Bft)
04.12.2020 08:25 0,1 C 3,4 C -0,4 C -0,2 C -0,9 C 0,0 C 81 % 86 % 997,1 hPa 0,0 l/m 3,5 km/h (1 Bft) NO 45 0 min -2,8 C -0,9 C 12,6 km/h (3 Bft)
04.12.2020 08:30 0,3 C 3,4 C -0,4 C -0,3 C -1,4 C 0,0 C 81 % 85 % 997,6 hPa 0,0 l/m 5,0 km/h (1 Bft) N-NO 22 0 min -2,6 C -3,2 C 9,5 km/h (2 Bft)
04.12.2020 08:35 0,3 C 3,4 C -0,3 C -0,1 C -0,8 C 0,0 C 81 % 85 % 997,6 hPa 0,0 l/m 4,0 km/h (1 Bft) NW 315 0 min -2,6 C -0,8 C 13,5 km/h (3 Bft)
04.12.2020 08:40 0,4 C 3,4 C -0,2 C 0,2 C -0,1 C 0,0 C 80 % 85 % 997,6 hPa 0,0 l/m 2,9 km/h (1 Bft) W-SW 247 0 min -2,6 C -0,1 C 1,8 km/h (1 Bft)
04.12.2020 08:45 0,4 C 3,4 C -0,1 C 0,4 C 0,3 C 0,0 C 80 % 85 % 997,6 hPa 0,0 l/m 2,3 km/h (1 Bft) O-NO 67 0 min -2,6 C 0,3 C 3,1 km/h (1 Bft)
04.12.2020 08:50 0,5 C 3,4 C 0,0 C 0,5 C 0,4 C 0,0 C 80 % 84 % 997,3 hPa 0,0 l/m 2,3 km/h (1 Bft) O 90 0 min -2,5 C 0,4 C 4,0 km/h (1 Bft)
04.12.2020 08:55 0,7 C 3,4 C 0,2 C 0,6 C 0,5 C 0,0 C 80 % 85 % 997,3 hPa 0,0 l/m 2,6 km/h (1 Bft) W-SW 247 0 min -2,3 C 0,5 C 6,4 km/h (2 Bft)
04.12.2020 09:00 0,7 C 3,4 C 0,2 C 0,6 C 0,3 C 0,0 C 80 % 85 % 997,3 hPa 0,0 l/m 2,9 km/h (1 Bft) N-NO 22 0 min -2,3 C 0,3 C 6,9 km/h (2 Bft)
04.12.2020 09:05 0,7 C 3,4 C 0,3 C 0,6 C 0,3 C 0,0 C 80 % 84 % 997,3 hPa 0,0 l/m 3,2 km/h (1 Bft) O-NO 67 0 min -2,3 C 0,3 C 4,8 km/h (1 Bft)
04.12.2020 09:10 0,9 C 3,4 C 0,4 C 0,4 C -0,6 C 0,0 C 80 % 84 % 996,4 hPa 0,0 l/m 5,0 km/h (1 Bft) NO 45 0 min -2,2 C -2,3 C 11,4 km/h (2 Bft)
04.12.2020 09:15 0,9 C 3,4 C 0,5 C 0,3 C -0,9 C 0,0 C 79 % 84 % 996,4 hPa 0,0 l/m 6,3 km/h (2 Bft) W-NW 292 0 min -2,3 C -3,2 C 19,3 km/h (3 Bft)
04.12.2020 09:20 1,0 C 3,4 C 0,6 C 0,5 C -0,4 C 0,0 C 79 % 83 % 996,4 hPa 0,0 l/m 5,1 km/h (1 Bft) S-SW 202 0 min -2,2 C -2,1 C 7,7 km/h (2 Bft)
04.12.2020 09:25 1,1 C 3,4 C 0,7 C 0,8 C 0,1 C 0,0 C 79 % 83 % 996,4 hPa 0,0 l/m 4,3 km/h (1 Bft) O-NO 67 0 min -2,1 C 0,1 C 9,5 km/h (2 Bft)
04.12.2020 09:30 1,0 C 3,4 C 0,7 C 0,8 C 0,3 C 0,0 C 79 % 83 % 996,6 hPa 0,0 l/m 4,0 km/h (1 Bft) NW 315 0 min -2,2 C 0,3 C 0,0 km/h (0 Bft)
04.12.2020 09:35 1,2 C 3,4 C 0,8 C 1,3 C 1,3 C 0,1 C 79 % 83 % 996,6 hPa 0,0 l/m 2,6 km/h (1 Bft) N-NO 22 0 min -2,0 C 1,3 C 5,8 km/h (2 Bft)
04.12.2020 09:40 1,2 C 3,4 C 0,8 C 1,2 C 1,1 C 0,0 C 79 % 83 % 996,6 hPa 0,0 l/m 2,9 km/h (1 Bft) S 180 0 min -2,0 C 1,1 C 4,5 km/h (1 Bft)
04.12.2020 09:45 1,2 C 3,4 C 0,9 C 1,5 C 1,5 C 0,3 C 79 % 83 % 996,6 hPa 0,0 l/m 2,4 km/h (1 Bft) O-NO 67 0 min -2,0 C 1,5 C 1,9 km/h (1 Bft)
04.12.2020 09:50 1,3 C 3,4 C 1,0 C 1,5 C 1,5 C 0,2 C 79 % 83 % 996,6 hPa 0,0 l/m 1,6 km/h (1 Bft) O-NO 67 0 min -1,9 C 1,5 C 0,0 km/h (0 Bft)
04.12.2020 09:55 1,3 C 3,4 C 1,1 C 1,6 C 1,6 C 0,3 C 79 % 82 % 996,6 hPa 0,0 l/m 1,3 km/h (1 Bft) O-SO 112 0 min -1,9 C 1,6 C 3,2 km/h (1 Bft)
04.12.2020 10:00 1,3 C 3,4 C 1,1 C 1,7 C 1,7 C 0,4 C 79 % 82 % 996,6 hPa 0,0 l/m 1,6 km/h (1 Bft) SW 225 0 min -1,9 C 1,7 C 1,6 km/h (1 Bft)
04.12.2020 10:05 1,5 C 3,4 C 1,1 C 1,7 C 1,7 C 0,2 C 78 % 82 % 996,6 hPa 0,0 l/m 1,8 km/h (1 Bft) NO 45 0 min -1,9 C 1,7 C 0,0 km/h (0 Bft)
04.12.2020 10:10 1,5 C 3,4 C 1,2 C 1,8 C 1,8 C 0,3 C 78 % 83 % 996,8 hPa 0,0 l/m 1,1 km/h (1 Bft) NO 45 0 min -1,9 C 1,8 C 1,9 km/h (1 Bft)
04.12.2020 10:15 1,5 C 3,4 C 1,3 C 1,9 C 1,9 C 0,4 C 78 % 82 % 996,8 hPa 0,0 l/m 0,5 km/h (0 Bft) NO 45 0 min -1,9 C 1,9 C 1,6 km/h (1 Bft)
04.12.2020 10:20 1,5 C 3,4 C 1,4 C 2,0 C 2,0 C 0,5 C 78 % 82 % 996,8 hPa 0,0 l/m 0,6 km/h (0 Bft) S 180 0 min -1,9 C 2,0 C 2,9 km/h (1 Bft)
04.12.2020 10:25 1,7 C 3,4 C 1,5 C 2,1 C 2,1 C 0,4 C 78 % 82 % 996,8 hPa 0,0 l/m 1,4 km/h (1 Bft) W 270 0 min -1,7 C 2,1 C 2,3 km/h (1 Bft)
04.12.2020 10:30 1,6 C 3,4 C 1,6 C 2,2 C 2,2 C 0,6 C 78 % 81 % 996,9 hPa 0,0 l/m 1,3 km/h (1 Bft) O-NO 67 0 min -1,8 C 2,2 C 0,0 km/h (0 Bft)
04.12.2020 10:35 1,7 C 3,4 C 1,7 C 2,4 C 2,4 C 0,7 C 78 % 82 % 996,9 hPa 0,0 l/m 0,6 km/h (0 Bft) N-NO 22 0 min -1,7 C 2,4 C 2,6 km/h (1 Bft)
04.12.2020 10:40 1,9 C 3,5 C 1,7 C 2,4 C 2,4 C 0,5 C 78 % 82 % 996,9 hPa 0,0 l/m 0,3 km/h (0 Bft) S-SO 157 0 min -1,5 C 2,4 C 2,4 km/h (1 Bft)
04.12.2020 10:45 1,8 C 3,5 C 1,6 C 2,4 C 2,4 C 0,6 C 78 % 81 % 996,9 hPa 0,0 l/m 1,4 km/h (1 Bft) O-NO 67 0 min -1,6 C 2,4 C 0,0 km/h (0 Bft)
04.12.2020 10:50 1,9 C 3,5 C 1,7 C 2,4 C 2,4 C 0,5 C 78 % 81 % 996,9 hPa 0,0 l/m 2,3 km/h (1 Bft) W 270 0 min -1,5 C 2,4 C 4,7 km/h (1 Bft)
04.12.2020 10:55 1,9 C 3,5 C 1,9 C 2,5 C 2,5 C 0,6 C 78 % 81 % 996,9 hPa 0,0 l/m 1,8 km/h (1 Bft) N-NW 337 0 min -1,5 C 2,5 C 2,3 km/h (1 Bft)
04.12.2020 11:00 2,0 C 3,5 C 1,9 C 2,7 C 2,7 C 0,7 C 78 % 81 % 996,9 hPa 0,0 l/m 1,9 km/h (1 Bft) S-SO 157 0 min -1,4 C 2,7 C 4,5 km/h (1 Bft)
04.12.2020 11:05 2,1 C 3,5 C 2,2 C 3,0 C 3,0 C 0,9 C 78 % 81 % 996,9 hPa 0,0 l/m 1,4 km/h (1 Bft) S 180 0 min -1,3 C 3,0 C 0,0 km/h (0 Bft)
04.12.2020 11:10 2,1 C 3,5 C 2,2 C 3,0 C 3,0 C 0,9 C 78 % 81 % 996,9 hPa 0,0 l/m 1,4 km/h (1 Bft) S 180 0 min -1,3 C 3,0 C 0,0 km/h (0 Bft)
04.12.2020 11:15 2,7 C 3,5 C 3,0 C 5,7 C 5,7 C 3,0 C 78 % 79 % 996,9 hPa 0,0 l/m 1,8 km/h (1 Bft) NO 45 0 min -0,7 C 5,7 C 3,2 km/h (1 Bft)
04.12.2020 11:20 2,8 C 3,5 C 3,0 C 5,5 C 5,5 C 2,7 C 77 % 79 % 996,9 hPa 0,0 l/m 2,1 km/h (1 Bft) O-NO 67 0 min -0,8 C 5,5 C 4,3 km/h (1 Bft)
04.12.2020 11:25 2,8 C 3,5 C 3,0 C 5,1 C 5,1 C 2,3 C 77 % 79 % 996,9 hPa 0,0 l/m 1,9 km/h (1 Bft) N-NW 337 0 min -0,8 C 5,1 C 5,6 km/h (1 Bft)
04.12.2020 11:30 2,9 C 3,5 C 2,9 C 4,7 C 4,7 C 1,8 C 76 % 79 % 996,6 hPa 0,0 l/m 2,6 km/h (1 Bft) W-SW 247 0 min -0,9 C 4,7 C 3,7 km/h (1 Bft)
04.12.2020 11:35 3,0 C 3,5 C 3,0 C 4,4 C 4,4 C 1,4 C 76 % 78 % 996,6 hPa 0,0 l/m 2,1 km/h (1 Bft) N-NO 22 0 min -0,8 C 4,4 C 1,8 km/h (1 Bft)
04.12.2020 11:40 3,1 C 3,5 C 3,1 C 4,4 C 4,4 C 1,3 C 76 % 78 % 996,6 hPa 0,0 l/m 1,4 km/h (1 Bft) NO 45 0 min -0,7 C 4,4 C 2,1 km/h (1 Bft)
04.12.2020 11:45 3,1 C 3,5 C 3,1 C 4,4 C 4,4 C 1,3 C 75 % 78 % 996,6 hPa 0,0 l/m 1,6 km/h (1 Bft) W-NW 292 0 min -0,9 C 4,4 C 2,6 km/h (1 Bft)
04.12.2020 11:50 3,2 C 3,5 C 3,1 C 4,5 C 4,5 C 1,3 C 75 % 78 % 996,6 hPa 0,0 l/m 1,8 km/h (1 Bft) S-SO 157 0 min -0,8 C 4,5 C 4,3 km/h (1 Bft)
04.12.2020 11:55 3,2 C 3,5 C 3,3 C 4,6 C 4,6 C 1,4 C 75 % 78 % 996,6 hPa 0,0 l/m 2,6 km/h (1 Bft) NO 45 0 min -0,8 C 4,6 C 2,7 km/h (1 Bft)
04.12.2020 12:00 3,3 C 3,6 C 3,4 C 4,7 C 4,7 C 1,4 C 75 % 77 % 996,6 hPa 0,0 l/m 2,4 km/h (1 Bft) S-SO 157 0 min -0,7 C 4,7 C 1,6 km/h (1 Bft)
04.12.2020 12:05 3,5 C 3,6 C 3,5 C 4,8 C 4,8 C 1,3 C 75 % 77 % 996,6 hPa 0,0 l/m 1,3 km/h (1 Bft) O-NO 67 0 min -0,5 C 4,8 C 0,0 km/h (0 Bft)
04.12.2020 12:10 3,5 C 3,6 C 3,5 C 4,8 C 4,8 C 1,3 C 75 % 77 % 997,1 hPa 0,0 l/m 1,1 km/h (1 Bft) O 90 0 min -0,5 C 4,8 C 1,6 km/h (1 Bft)
04.12.2020 12:15 3,5 C 3,6 C 3,5 C 4,7 C 4,7 C 1,2 C 75 % 77 % 997,1 hPa 0,0 l/m 1,3 km/h (1 Bft) S 180 0 min -0,5 C 4,7 C 1,8 km/h (1 Bft)
04.12.2020 12:20 3,4 C 3,6 C 3,4 C 4,7 C 4,7 C 1,3 C 75 % 76 % 997,1 hPa 0,0 l/m 1,6 km/h (1 Bft) O-NO 67 0 min -0,6 C 4,7 C 1,9 km/h (1 Bft)
04.12.2020 12:25 3,5 C 3,6 C 3,3 C 4,4 C 4,4 C 0,9 C 75 % 77 % 997,1 hPa 0,0 l/m 1,9 km/h (1 Bft) O-NO 67 0 min -0,5 C 4,4 C 2,4 km/h (1 Bft)
04.12.2020 12:30 3,5 C 3,6 C 3,3 C 4,3 C 4,3 C 0,8 C 75 % 77 % 997,1 hPa 0,0 l/m 2,3 km/h (1 Bft) N-NW 337 0 min -0,5 C 4,3 C 7,9 km/h (2 Bft)
04.12.2020 12:35 3,5 C 3,6 C 3,3 C 4,2 C 4,2 C 0,7 C 75 % 76 % 997,1 hPa 0,0 l/m 1,9 km/h (1 Bft) O-NO 67 0 min -0,5 C 4,2 C 0,0 km/h (0 Bft)
04.12.2020 12:40 3,5 C 3,6 C 3,3 C 4,1 C 4,1 C 0,6 C 75 % 77 % 997,1 hPa 0,0 l/m 1,9 km/h (1 Bft) O-NO 67 0 min -0,5 C 4,1 C 5,8 km/h (2 Bft)
04.12.2020 12:45 3,4 C 3,6 C 3,2 C 4,0 C 4,0 C 0,6 C 75 % 77 % 997,1 hPa 0,0 l/m 1,6 km/h (1 Bft) O-NO 67 0 min -0,6 C 4,0 C 3,7 km/h (1 Bft)
04.12.2020 12:50 3,3 C 3,6 C 3,1 C 3,9 C 3,9 C 0,6 C 75 % 76 % 997,1 hPa 0,0 l/m 2,3 km/h (1 Bft) O-NO 67 0 min -0,7 C 3,9 C 4,3 km/h (1 Bft)
04.12.2020 12:55 3,3 C 3,6 C 3,1 C 3,6 C 3,6 C 0,3 C 75 % 77 % 997,1 hPa 0,0 l/m 3,1 km/h (1 Bft) O-NO 67 0 min -0,7 C 3,6 C 2,7 km/h (1 Bft)
04.12.2020 13:00 3,3 C 3,6 C 3,1 C 3,6 C 3,6 C 0,3 C 75 % 77 % 997,1 hPa 0,0 l/m 3,2 km/h (1 Bft) NO 45 0 min -0,7 C 3,6 C 4,0 km/h (1 Bft)
04.12.2020 13:05 3,2 C 3,6 C 3,2 C 3,8 C 3,8 C 0,6 C 75 % 77 % 997,1 hPa 0,0 l/m 2,9 km/h (1 Bft) SO 135 0 min -0,8 C 3,8 C 6,0 km/h (2 Bft)
04.12.2020 13:10 3,3 C 3,7 C 3,3 C 4,0 C 4,0 C 0,7 C 75 % 77 % 997,0 hPa 0,0 l/m 2,4 km/h (1 Bft) S 180 0 min -0,7 C 4,0 C 1,9 km/h (1 Bft)
04.12.2020 13:15 3,3 C 3,7 C 3,3 C 4,1 C 4,1 C 0,8 C 76 % 77 % 997,0 hPa 0,0 l/m 2,7 km/h (1 Bft) NO 45 0 min -0,5 C 4,1 C 3,5 km/h (1 Bft)
04.12.2020 13:20 3,3 C 3,7 C 3,3 C 4,2 C 4,2 C 0,9 C 76 % 77 % 997,0 hPa 0,0 l/m 2,6 km/h (1 Bft) O-NO 67 0 min -0,5 C 4,2 C 4,3 km/h (1 Bft)
04.12.2020 13:25 3,4 C 3,7 C 3,5 C 4,0 C 4,0 C 0,6 C 76 % 77 % 997,0 hPa 0,0 l/m 3,7 km/h (1 Bft) O-NO 67 0 min -0,4 C 4,0 C 8,7 km/h (2 Bft)
04.12.2020 13:30 3,4 C 3,7 C 3,6 C 4,3 C 4,3 C 0,9 C 76 % 77 % 996,9 hPa 0,0 l/m 3,9 km/h (1 Bft) O 90 0 min -0,4 C 4,3 C 2,3 km/h (1 Bft)
04.12.2020 13:35 3,6 C 3,7 C 3,9 C 5,2 C 5,2 C 1,6 C 76 % 76 % 996,9 hPa 0,0 l/m 4,5 km/h (1 Bft) NO 45 0 min -0,2 C 5,2 C 9,2 km/h (2 Bft)
04.12.2020 13:40 3,7 C 3,7 C 4,1 C 5,4 C 5,4 C 1,7 C 76 % 76 % 996,9 hPa 0,0 l/m 4,3 km/h (1 Bft) O 90 0 min -0,1 C 5,4 C 2,3 km/h (1 Bft)
04.12.2020 13:45 3,9 C 3,8 C 4,2 C 6,4 C 6,4 C 2,5 C 75 % 75 % 996,9 hPa 0,0 l/m 4,0 km/h (1 Bft) NO 45 0 min -0,1 C 6,4 C 6,9 km/h (2 Bft)
04.12.2020 13:50 4,0 C 3,8 C 4,1 C 7,2 C 7,2 C 3,2 C 75 % 75 % 996,6 hPa 0,0 l/m 3,4 km/h (1 Bft) O-SO 112 0 min -0,0 C 7,2 C 3,1 km/h (1 Bft)
04.12.2020 13:55 4,1 C 3,8 C 3,9 C 7,2 C 7,2 C 3,1 C 74 % 75 % 996,6 hPa 0,0 l/m 3,1 km/h (1 Bft) N-NO 22 0 min -0,1 C 7,2 C 1,8 km/h (1 Bft)
04.12.2020 14:00 4,0 C 3,7 C 3,8 C 6,8 C 6,8 C 2,8 C 74 % 76 % 996,6 hPa 0,0 l/m 2,9 km/h (1 Bft) NO 45 0 min -0,2 C 6,8 C 6,8 km/h (2 Bft)
04.12.2020 14:05 4,1 C 3,8 C 3,6 C 6,4 C 6,4 C 2,3 C 74 % 76 % 996,6 hPa 0,0 l/m 3,5 km/h (1 Bft) NO 45 0 min -0,1 C 6,4 C 3,9 km/h (1 Bft)
04.12.2020 14:10 4,0 C 3,8 C 3,5 C 6,7 C 6,7 C 2,7 C 74 % 76 % 996,5 hPa 0,0 l/m 3,2 km/h (1 Bft) N-NO 22 0 min -0,2 C 6,7 C 6,8 km/h (2 Bft)
04.12.2020 14:15 4,0 C 3,8 C 3,3 C 5,9 C 5,9 C 1,9 C 74 % 76 % 996,5 hPa 0,0 l/m 3,9 km/h (1 Bft) NO 45 0 min -0,2 C 5,9 C 10,9 km/h (2 Bft)
04.12.2020 14:20 4,0 C 3,8 C 3,2 C 5,1 C 5,1 C 1,1 C 73 % 77 % 996,5 hPa 0,0 l/m 4,5 km/h (1 Bft) O-NO 67 0 min -0,4 C 5,1 C 7,4 km/h (2 Bft)
04.12.2020 14:25 4,0 C 3,8 C 3,1 C 5,0 C 5,0 C 1,0 C 74 % 77 % 996,5 hPa 0,0 l/m 3,9 km/h (1 Bft) N-NO 22 0 min -0,2 C 5,0 C 2,9 km/h (1 Bft)
04.12.2020 14:30 3,9 C 3,9 C 3,1 C 5,4 C 5,4 C 1,5 C 73 % 77 % 996,1 hPa 0,0 l/m 3,4 km/h (1 Bft) N 360 0 min -0,5 C 5,4 C 5,1 km/h (1 Bft)
04.12.2020 14:35 3,9 C 3,8 C 3,1 C 5,9 C 5,9 C 2,0 C 74 % 77 % 996,1 hPa 0,0 l/m 2,1 km/h (1 Bft) O-SO 112 0 min -0,3 C 5,9 C 0,0 km/h (0 Bft)
04.12.2020 14:40 4,0 C 3,9 C 3,0 C 5,9 C 5,9 C 1,9 C 74 % 78 % 996,1 hPa 0,0 l/m 1,8 km/h (1 Bft) N-NO 22 0 min -0,2 C 5,9 C 0,0 km/h (0 Bft)
04.12.2020 14:45 4,0 C 3,9 C 3,1 C 6,0 C 6,0 C 2,0 C 74 % 78 % 996,1 hPa 0,0 l/m 1,3 km/h (1 Bft) N 360 0 min -0,2 C 6,0 C 2,6 km/h (1 Bft)
04.12.2020 14:50 3,9 C 3,9 C 2,9 C 5,6 C 5,6 C 1,7 C 74 % 78 % 996,6 hPa 0,0 l/m 1,6 km/h (1 Bft) NO 45 0 min -0,3 C 5,6 C 0,0 km/h (0 Bft)
04.12.2020 14:55 3,8 C 3,9 C 2,7 C 4,7 C 4,7 C 0,9 C 74 % 78 % 996,6 hPa 0,0 l/m 1,9 km/h (1 Bft) O-NO 67 0 min -0,4 C 4,7 C 6,6 km/h (2 Bft)
04.12.2020 15:00 3,7 C 3,9 C 2,5 C 3,9 C 3,9 C 0,2 C 74 % 79 % 996,6 hPa 0,0 l/m 3,2 km/h (1 Bft) O-NO 67 0 min -0,5 C 3,9 C 9,3 km/h (2 Bft)
04.12.2020 15:05 3,7 C 3,9 C 2,3 C 3,2 C 2,1 C 0,0 C 74 % 79 % 996,6 hPa 0,0 l/m 5,6 km/h (1 Bft) O-NO 67 0 min -0,5 C 0,5 C 2,9 km/h (1 Bft)
04.12.2020 15:10 3,5 C 3,9 C 2,2 C 3,1 C 2,2 C 0,0 C 74 % 79 % 996,8 hPa 0,0 l/m 4,7 km/h (1 Bft) N-NO 22 0 min -0,7 C 1,0 C 0,0 km/h (0 Bft)
04.12.2020 15:15 3,3 C 3,9 C 1,9 C 3,1 C 2,7 C 0,0 C 74 % 80 % 996,8 hPa 0,0 l/m 1,8 km/h (1 Bft) N-NW 337 0 min -0,9 C 2,7 C 0,0 km/h (0 Bft)
04.12.2020 15:20 3,3 C 4,0 C 1,9 C 3,0 C 2,5 C 0,0 C 74 % 80 % 996,8 hPa 0,0 l/m 1,1 km/h (1 Bft) NW 315 0 min -0,9 C 2,5 C 2,4 km/h (1 Bft)
04.12.2020 15:25 3,0 C 4,0 C 1,7 C 2,7 C 2,2 C 0,0 C 75 % 80 % 996,8 hPa 0,0 l/m 0,8 km/h (0 Bft) SW 225 0 min -1,0 C 2,2 C 0,0 km/h (0 Bft)
04.12.2020 15:30 3,0 C 4,0 C 1,7 C 2,7 C 2,1 C 0,0 C 75 % 81 % 997,1 hPa 0,0 l/m 0,5 km/h (0 Bft) SW 225 0 min -1,0 C 2,1 C 0,0 km/h (0 Bft)
04.12.2020 15:35 2,8 C 4,0 C 1,4 C 2,5 C 1,9 C 0,0 C 75 % 81 % 997,1 hPa 0,0 l/m 0,5 km/h (0 Bft) W-SW 247 0 min -1,2 C 1,9 C 2,4 km/h (1 Bft)
04.12.2020 15:40 2,9 C 4,0 C 1,3 C 2,5 C 1,8 C 0,0 C 75 % 81 % 997,1 hPa 0,0 l/m 1,0 km/h (0 Bft) S 180 0 min -1,1 C 1,8 C 3,5 km/h (1 Bft)
04.12.2020 15:45 2,7 C 4,0 C 1,3 C 2,3 C 1,6 C 0,0 C 75 % 82 % 997,1 hPa 0,0 l/m 1,4 km/h (1 Bft) S-SO 157 0 min -1,3 C 1,6 C 3,7 km/h (1 Bft)
04.12.2020 15:50 2,7 C 4,0 C 1,3 C 2,3 C 1,6 C 0,0 C 75 % 82 % 996,8 hPa 0,0 l/m 1,6 km/h (1 Bft) NW 315 0 min -1,3 C 1,6 C 1,9 km/h (1 Bft)
04.12.2020 15:55 2,7 C 4,0 C 1,2 C 2,3 C 1,5 C 0,0 C 76 % 82 % 996,8 hPa 0,0 l/m 1,6 km/h (1 Bft) NO 45 0 min -1,1 C 1,5 C 0,0 km/h (0 Bft)
04.12.2020 16:00 2,5 C 4,0 C 1,2 C 2,2 C 1,5 C 0,0 C 76 % 82 % 996,8 hPa 0,0 l/m 1,4 km/h (1 Bft) NO 45 0 min -1,3 C 1,5 C 0,0 km/h (0 Bft)
04.12.2020 16:05 2,4 C 4,0 C 1,1 C 2,1 C 1,4 C 0,0 C 76 % 82 % 996,8 hPa 0,0 l/m 1,4 km/h (1 Bft) W 270 0 min -1,4 C 1,4 C 2,7 km/h (1 Bft)
04.12.2020 16:10 2,5 C 4,0 C 1,0 C 2,1 C 1,2 C 0,0 C 76 % 82 % 996,8 hPa 0,0 l/m 0,8 km/h (0 Bft) S-SW 202 0 min -1,3 C 1,2 C 0,0 km/h (0 Bft)
04.12.2020 16:15 2,3 C 4,0 C 1,0 C 1,9 C 1,1 C 0,0 C 76 % 83 % 996,8 hPa 0,0 l/m 1,1 km/h (1 Bft) O-NO 67 0 min -1,5 C 1,1 C 1,8 km/h (1 Bft)
04.12.2020 16:20 2,3 C 4,0 C 0,9 C 1,9 C 1,2 C 0,0 C 77 % 83 % 996,8 hPa 0,0 l/m 1,3 km/h (1 Bft) O-NO 67 0 min -1,3 C 1,2 C 0,0 km/h (0 Bft)
04.12.2020 16:25 2,3 C 4,0 C 1,0 C 1,9 C 1,2 C 0,0 C 77 % 83 % 996,8 hPa 0,0 l/m 1,1 km/h (1 Bft) N 360 0 min -1,3 C 1,2 C 2,1 km/h (1 Bft)
04.12.2020 16:30 2,3 C 4,0 C 1,0 C 1,9 C 1,2 C 0,0 C 77 % 83 % 996,6 hPa 0,0 l/m 1,1 km/h (1 Bft) O-SO 112 0 min -1,3 C 1,2 C 0,0 km/h (0 Bft)
04.12.2020 16:35 2,3 C 4,1 C 1,0 C 2,0 C 1,3 C 0,0 C 77 % 83 % 996,6 hPa 0,0 l/m 1,8 km/h (1 Bft) NW 315 0 min -1,3 C 1,3 C 0,0 km/h (0 Bft)
04.12.2020 16:40 2,1 C 4,1 C 0,8 C 1,8 C 1,1 C 0,0 C 77 % 83 % 996,6 hPa 0,0 l/m 1,3 km/h (1 Bft) O 90 0 min -1,5 C 1,1 C 1,8 km/h (1 Bft)
04.12.2020 16:45 2,1 C 4,1 C 0,7 C 1,7 C 1,0 C 0,0 C 78 % 83 % 996,6 hPa 0,0 l/m 0,5 km/h (0 Bft) N-NO 22 0 min -1,3 C 1,0 C 2,1 km/h (1 Bft)
04.12.2020 16:50 2,0 C 4,1 C 0,6 C 1,6 C 0,9 C 0,0 C 78 % 83 % 996,6 hPa 0,0 l/m 0,3 km/h (0 Bft) N-NO 22 0 min -1,4 C 0,9 C 0,0 km/h (0 Bft)
04.12.2020 16:55 1,9 C 4,1 C 0,4 C 1,5 C 0,8 C 0,0 C 78 % 84 % 996,6 hPa 0,0 l/m 0,3 km/h (0 Bft) N-NO 22 0 min -1,5 C 0,8 C 0,0 km/h (0 Bft)
04.12.2020 17:00 1,9 C 4,1 C 0,4 C 1,5 C 0,8 C 0,0 C 78 % 84 % 996,6 hPa 0,0 l/m 0,3 km/h (0 Bft) W-NW 292 0 min -1,5 C 0,8 C 0,0 km/h (0 Bft)
04.12.2020 17:05 1,9 C 4,1 C 0,5 C 1,6 C 0,9 C 0,0 C 78 % 84 % 996,6 hPa 0,0 l/m 0,6 km/h (0 Bft) O-NO 67 0 min -1,5 C 0,9 C 0,0 km/h (0 Bft)
04.12.2020 17:10 1,9 C 4,1 C 0,5 C 1,6 C 0,9 C 0,0 C 78 % 85 % 996,9 hPa 0,0 l/m 1,3 km/h (1 Bft) N-NO 22 0 min -1,5 C 0,9 C 2,7 km/h (1 Bft)
04.12.2020 17:15 1,9 C 4,1 C 0,5 C 1,6 C 1,0 C 0,0 C 78 % 85 % 996,9 hPa 0,0 l/m 1,4 km/h (1 Bft) O-NO 67 0 min -1,5 C 1,0 C 1,6 km/h (1 Bft)
04.12.2020 17:20 1,9 C 4,1 C 0,6 C 1,6 C 1,0 C 0,0 C 79 % 85 % 996,9 hPa 0,0 l/m 1,1 km/h (1 Bft) NO 45 0 min -1,3 C 1,0 C 0,0 km/h (0 Bft)
04.12.2020 17:25 1,7 C 4,1 C 0,4 C 1,4 C 0,9 C 0,0 C 79 % 85 % 996,9 hPa 0,0 l/m 0,3 km/h (0 Bft) NO 45 0 min -1,5 C 0,9 C 0,0 km/h (0 Bft)
04.12.2020 17:30 1,6 C 4,1 C 0,4 C 1,4 C 0,9 C 0,0 C 79 % 85 % 996,8 hPa 0,0 l/m 0,2 km/h (0 Bft) SW 225 0 min -1,6 C 0,9 C 2,9 km/h (1 Bft)
04.12.2020 17:35 1,7 C 4,1 C 0,7 C 1,5 C 1,0 C 0,0 C 79 % 85 % 996,8 hPa 0,0 l/m 0,8 km/h (0 Bft) N-NO 22 0 min -1,5 C 1,0 C 2,6 km/h (1 Bft)
04.12.2020 17:40 1,9 C 4,1 C 0,9 C 1,7 C 1,2 C 0,0 C 79 % 85 % 996,8 hPa 0,0 l/m 1,1 km/h (1 Bft) O 90 0 min -1,3 C 1,2 C 1,8 km/h (1 Bft)
04.12.2020 17:45 1,9 C 4,1 C 1,1 C 1,7 C 1,4 C 0,0 C 79 % 85 % 996,8 hPa 0,0 l/m 1,0 km/h (0 Bft) NO 45 0 min -1,3 C 1,4 C 0,0 km/h (0 Bft)
04.12.2020 17:50 2,0 C 4,1 C 1,3 C 1,8 C 1,5 C 0,0 C 79 % 84 % 996,4 hPa 0,0 l/m 0,6 km/h (0 Bft) O-NO 67 0 min -1,2 C 1,5 C 0,0 km/h (0 Bft)
04.12.2020 17:55 2,1 C 4,1 C 1,4 C 1,9 C 1,6 C 0,0 C 79 % 84 % 996,4 hPa 0,0 l/m 0,3 km/h (0 Bft) O 90 0 min -1,2 C 1,6 C 0,0 km/h (0 Bft)
04.12.2020 18:00 2,3 C 4,1 C 1,5 C 2,1 C 1,7 C 0,0 C 79 % 84 % 996,4 hPa 0,0 l/m 0,8 km/h (0 Bft) O-NO 67 0 min -1,0 C 1,7 C 0,0 km/h (0 Bft)
04.12.2020 18:05 2,3 C 4,1 C 1,7 C 2,1 C 1,8 C 0,0 C 79 % 83 % 996,4 hPa 0,0 l/m 0,8 km/h (0 Bft) N-NO 22 0 min -1,0 C 1,8 C 1,8 km/h (1 Bft)
04.12.2020 18:10 2,4 C 4,1 C 1,9 C 2,2 C 1,9 C 0,0 C 79 % 83 % 997,1 hPa 0,0 l/m 0,8 km/h (0 Bft) O-NO 67 0 min -0,9 C 1,9 C 2,3 km/h (1 Bft)
04.12.2020 18:15 2,4 C 4,1 C 1,9 C 2,2 C 1,9 C 0,0 C 79 % 83 % 997,1 hPa 0,0 l/m 0,6 km/h (0 Bft) N-NO 22 0 min -0,9 C 1,9 C 0,0 km/h (0 Bft)
04.12.2020 18:20 2,5 C 4,1 C 1,9 C 2,3 C 2,0 C 0,0 C 79 % 83 % 997,1 hPa 0,0 l/m 0,6 km/h (0 Bft) NO 45 0 min -0,8 C 2,0 C 3,1 km/h (1 Bft)
04.12.2020 18:25 2,7 C 4,1 C 1,9 C 2,5 C 2,2 C 0,0 C 79 % 83 % 997,1 hPa 0,0 l/m 1,8 km/h (1 Bft) O-SO 112 0 min -0,6 C 2,2 C 7,6 km/h (2 Bft)
04.12.2020 18:30 2,7 C 4,1 C 1,9 C 2,6 C 2,4 C 0,0 C 79 % 83 % 996,7 hPa 0,0 l/m 2,3 km/h (1 Bft) NO 45 0 min -0,6 C 2,4 C 3,7 km/h (1 Bft)
04.12.2020 18:35 2,8 C 4,1 C 2,1 C 2,7 C 2,5 C 0,0 C 79 % 83 % 996,7 hPa 0,0 l/m 2,6 km/h (1 Bft) N-NO 22 0 min -0,5 C 2,5 C 2,6 km/h (1 Bft)
04.12.2020 18:40 2,9 C 4,1 C 2,1 C 2,8 C 2,5 C 0,0 C 79 % 83 % 996,7 hPa 0,0 l/m 2,4 km/h (1 Bft) O-NO 67 0 min -0,4 C 2,5 C 2,7 km/h (1 Bft)
04.12.2020 18:45 2,8 C 4,1 C 2,1 C 2,7 C 2,5 C 0,0 C 79 % 83 % 996,7 hPa 0,0 l/m 1,6 km/h (1 Bft) NO 45 0 min -0,5 C 2,5 C 0,0 km/h (0 Bft)
04.12.2020 18:50 2,9 C 4,1 C 2,1 C 2,8 C 2,5 C 0,0 C 79 % 83 % 996,7 hPa 0,0 l/m 1,3 km/h (1 Bft) S-SO 157 0 min -0,4 C 2,5 C 2,6 km/h (1 Bft)
04.12.2020 18:55 2,8 C 4,1 C 2,1 C 2,7 C 2,5 C 0,0 C 79 % 83 % 996,7 hPa 0,0 l/m 1,9 km/h (1 Bft) NO 45 0 min -0,5 C 2,5 C 7,1 km/h (2 Bft)
04.12.2020 19:00 2,9 C 4,1 C 2,0 C 2,8 C 2,6 C 0,0 C 79 % 83 % 996,7 hPa 0,0 l/m 1,9 km/h (1 Bft) O-NO 67 0 min -0,4 C 2,6 C 0,0 km/h (0 Bft)
04.12.2020 19:05 2,8 C 4,2 C 2,2 C 2,7 C 2,5 C 0,0 C 78 % 82 % 996,7 hPa 0,0 l/m 1,0 km/h (0 Bft) NO 45 0 min -0,6 C 2,5 C 0,0 km/h (0 Bft)
04.12.2020 19:10 2,8 C 4,2 C 2,1 C 2,7 C 2,5 C 0,0 C 78 % 82 % 997,0 hPa 0,0 l/m 0,3 km/h (0 Bft) O-NO 67 0 min -0,6 C 2,5 C 2,6 km/h (1 Bft)
04.12.2020 19:12 2,4 C 4,1 C 1,9 C 2,2 C 1,9 C 0,0 C 79 % 83 % 997,1 hPa 0,0 l/m 0,6 km/h (0 Bft) N-NO 22 0 min -0,9 C 1,9 C 0,0 km/h (0 Bft)
04.12.2020 19:17 2,5 C 4,1 C 1,9 C 2,3 C 2,0 C 0,0 C 79 % 83 % 997,1 hPa 0,0 l/m 0,6 km/h (0 Bft) NO 45 0 min -0,8 C 2,0 C 3,1 km/h (1 Bft)
04.12.2020 19:22 2,7 C 4,1 C 1,9 C 2,5 C 2,2 C 0,0 C 79 % 83 % 997,1 hPa 0,0 l/m 1,8 km/h (1 Bft) O-SO 112 0 min -0,6 C 2,2 C 7,6 km/h (2 Bft)
04.12.2020 19:27 2,7 C 4,1 C 1,9 C 2,6 C 2,4 C 0,0 C 79 % 83 % 996,7 hPa 0,0 l/m 2,3 km/h (1 Bft) NO 45 0 min -0,6 C 2,4 C 3,7 km/h (1 Bft)
04.12.2020 19:32 2,8 C 4,1 C 2,1 C 2,7 C 2,5 C 0,0 C 79 % 83 % 996,7 hPa 0,0 l/m 2,6 km/h (1 Bft) N-NO 22 0 min -0,5 C 2,5 C 2,6 km/h (1 Bft)
04.12.2020 19:37 2,9 C 4,1 C 2,1 C 2,8 C 2,5 C 0,0 C 79 % 83 % 996,7 hPa 0,0 l/m 2,4 km/h (1 Bft) O-NO 67 0 min -0,4 C 2,5 C 2,7 km/h (1 Bft)
04.12.2020 19:42 2,8 C 4,1 C 2,1 C 2,7 C 2,5 C 0,0 C 79 % 83 % 996,7 hPa 0,0 l/m 1,6 km/h (1 Bft) NO 45 0 min -0,5 C 2,5 C 0,0 km/h (0 Bft)
04.12.2020 19:47 2,9 C 4,1 C 2,1 C 2,8 C 2,5 C 0,0 C 79 % 83 % 996,7 hPa 0,0 l/m 1,3 km/h (1 Bft) S-SO 157 0 min -0,4 C 2,5 C 2,6 km/h (1 Bft)
04.12.2020 19:52 2,8 C 4,1 C 2,1 C 2,7 C 2,5 C 0,0 C 79 % 83 % 996,7 hPa 0,0 l/m 1,9 km/h (1 Bft) NO 45 0 min -0,5 C 2,5 C 7,1 km/h (2 Bft)
04.12.2020 19:57 2,9 C 4,1 C 2,0 C 2,8 C 2,6 C 0,0 C 79 % 83 % 996,7 hPa 0,0 l/m 1,9 km/h (1 Bft) O-NO 67 0 min -0,4 C 2,6 C 0,0 km/h (0 Bft)
04.12.2020 20:02 2,8 C 4,2 C 2,2 C 2,7 C 2,5 C 0,0 C 78 % 82 % 996,7 hPa 0,0 l/m 1,0 km/h (0 Bft) NO 45 0 min -0,6 C 2,5 C 0,0 km/h (0 Bft)
04.12.2020 19:46 2,9 C 4,2 C 2,1 C 2,8 C 2,5 C 0,0 C 79 % 82 % 996,6 hPa 0,0 l/m 1,3 km/h (1 Bft) O-NO 67 0 min -0,4 C 2,5 C 2,7 km/h (1 Bft)
04.12.2020 19:50 2,8 C 4,2 C 2,0 C 2,7 C 2,5 C 0,0 C 78 % 82 % 996,8 hPa 0,0 l/m 1,1 km/h (1 Bft) NO 45 0 min -0,6 C 2,5 C 2,4 km/h (1 Bft)
04.12.2020 19:55 2,8 C 4,2 C 2,1 C 2,7 C 2,5 C 0,0 C 78 % 83 % 996,8 hPa 0,0 l/m 1,4 km/h (1 Bft) O-NO 67 0 min -0,6 C 2,5 C 0,0 km/h (0 Bft)
04.12.2020 20:00 2,9 C 4,2 C 2,2 C 2,8 C 2,5 C 0,0 C 79 % 82 % 996,8 hPa 0,0 l/m 1,4 km/h (1 Bft) O-NO 67 0 min -0,4 C 2,5 C 0,0 km/h (0 Bft)
04.12.2020 20:05 2,8 C 4,2 C 2,1 C 2,7 C 2,5 C 0,0 C 78 % 82 % 996,8 hPa 0,0 l/m 1,1 km/h (1 Bft) O-NO 67 0 min -0,6 C 2,5 C 0,0 km/h (0 Bft)
04.12.2020 20:11 2,9 C 4,2 C 2,1 C 2,8 C 2,5 C 0,0 C 79 % 82 % 997,1 hPa 0,0 l/m 0,6 km/h (0 Bft) N 0 0 min -0,4 C 2,5 C 0,0 km/h (0 Bft)
04.12.2020 20:26 2,9 C 4,2 C 2,1 C 2,8 C 2,6 C 0,0 C 78 % 82 % 997,1 hPa 0,0 l/m 0,0 km/h (0 Bft) O-NO 67 0 min -0,5 C 2,6 C 0,0 km/h (0 Bft)
04.12.2020 20:37 2,8 C 4,2 C 2,2 C 2,7 C 2,5 C 0,0 C 78 % 82 % 997,2 hPa 0,0 l/m 0,2 km/h (0 Bft) NW 315 0 min -0,6 C 2,5 C 0,0 km/h (0 Bft)
04.12.2020 20:38 2,8 C 4,2 C 2,2 C 2,7 C 2,5 C 0,0 C 78 % 82 % 997,2 hPa 0,0 l/m 0,2 km/h (0 Bft) NW 315 0 min -0,6 C 2,5 C 0,0 km/h (0 Bft)
04.12.2020 20:40 2,8 C 4,2 C 2,2 C 2,7 C 2,5 C 0,0 C 78 % 82 % 997,2 hPa 0,0 l/m 0,2 km/h (0 Bft) NW 315 0 min -0,6 C 2,5 C 0,0 km/h (0 Bft)
04.12.2020 20:45 2,8 C 4,2 C 2,2 C 2,7 C 2,5 C 0,0 C 78 % 82 % 997,2 hPa 0,0 l/m 0,0 km/h (0 Bft) NW 315 0 min -0,6 C 2,5 C 0,0 km/h (0 Bft)
04.12.2020 20:50 2,8 C 4,2 C 2,1 C 2,7 C 2,5 C 0,0 C 78 % 82 % 997,4 hPa 0,0 l/m 0,8 km/h (0 Bft) O-NO 67 0 min -0,6 C 2,5 C 0,0 km/h (0 Bft)
04.12.2020 20:55 2,8 C 4,2 C 2,1 C 2,7 C 2,5 C 0,0 C 78 % 82 % 997,4 hPa 0,0 l/m 1,3 km/h (1 Bft) O-NO 67 0 min -0,6 C 2,5 C 5,0 km/h (1 Bft)
04.12.2020 21:00 2,8 C 4,2 C 2,0 C 2,7 C 2,5 C 0,0 C 78 % 82 % 997,4 hPa 0,0 l/m 1,4 km/h (1 Bft) W-NW 292 0 min -0,6 C 2,5 C 3,2 km/h (1 Bft)
04.12.2020 21:05 2,8 C 4,2 C 1,9 C 2,7 C 2,5 C 0,0 C 78 % 82 % 997,4 hPa 0,0 l/m 2,4 km/h (1 Bft) NO 45 0 min -0,6 C 2,5 C 1,8 km/h (1 Bft)
04.12.2020 21:10 2,9 C 4,2 C 1,8 C 2,7 C 2,4 C 0,0 C 78 % 82 % 997,0 hPa 0,0 l/m 2,7 km/h (1 Bft) NO 45 0 min -0,5 C 2,4 C 2,3 km/h (1 Bft)
04.12.2020 21:15 2,7 C 4,2 C 1,8 C 2,5 C 2,1 C 0,0 C 78 % 83 % 997,0 hPa 0,0 l/m 3,1 km/h (1 Bft) N-NO 22 0 min -0,7 C 2,1 C 4,5 km/h (1 Bft)
04.12.2020 21:20 2,7 C 4,2 C 1,8 C 2,4 C 1,9 C 0,0 C 78 % 83 % 997,0 hPa 0,0 l/m 3,2 km/h (1 Bft) NO 45 0 min -0,7 C 1,9 C 2,4 km/h (1 Bft)
04.12.2020 21:25 2,7 C 4,2 C 1,7 C 2,5 C 2,1 C 0,0 C 78 % 83 % 997,0 hPa 0,0 l/m 2,4 km/h (1 Bft) O-NO 67 0 min -0,7 C 2,1 C 2,3 km/h (1 Bft)
04.12.2020 21:30 2,5 C 4,2 C 1,7 C 2,4 C 2,1 C 0,0 C 78 % 83 % 996,7 hPa 0,0 l/m 2,3 km/h (1 Bft) O-NO 67 0 min -0,9 C 2,1 C 2,3 km/h (1 Bft)
04.12.2020 21:35 2,4 C 4,2 C 1,7 C 2,3 C 2,0 C 0,0 C 78 % 83 % 996,7 hPa 0,0 l/m 2,4 km/h (1 Bft) O-NO 67 0 min -1,0 C 2,0 C 4,7 km/h (1 Bft)
04.12.2020 21:40 2,5 C 4,2 C 1,7 C 2,4 C 2,1 C 0,0 C 78 % 83 % 996,7 hPa 0,0 l/m 2,1 km/h (1 Bft) O-NO 67 0 min -0,9 C 2,1 C 0,0 km/h (0 Bft)
04.12.2020 21:45 2,7 C 4,2 C 1,8 C 2,5 C 2,1 C 0,0 C 79 % 83 % 996,7 hPa 0,0 l/m 3,1 km/h (1 Bft) O-NO 67 0 min -0,6 C 2,1 C 3,2 km/h (1 Bft)
04.12.2020 21:50 2,7 C 4,2 C 1,9 C 2,6 C 2,5 C 0,0 C 79 % 83 % 996,9 hPa 0,0 l/m 2,4 km/h (1 Bft) O-NO 67 0 min -0,6 C 2,5 C 0,0 km/h (0 Bft)
04.12.2020 21:55 2,8 C 4,2 C 2,0 C 2,7 C 2,5 C 0,0 C 78 % 83 % 996,9 hPa 0,0 l/m 1,6 km/h (1 Bft) NW 315 0 min -0,6 C 2,5 C 1,9 km/h (1 Bft)
04.12.2020 22:00 2,8 C 4,2 C 1,9 C 2,7 C 2,6 C 0,0 C 78 % 83 % 996,9 hPa 0,0 l/m 0,8 km/h (0 Bft) W-NW 292 0 min -0,6 C 2,6 C 0,0 km/h (0 Bft)
04.12.2020 22:05 2,8 C 4,2 C 1,9 C 2,7 C 2,6 C 0,0 C 78 % 83 % 996,9 hPa 0,0 l/m 1,0 km/h (0 Bft) O 90 0 min -0,6 C 2,6 C 0,0 km/h (0 Bft)
04.12.2020 22:11 2,8 C 4,3 C 2,0 C 2,7 C 2,5 C 0,0 C 78 % 83 % 997,1 hPa 0,0 l/m 1,1 km/h (1 Bft) N 0 0 min -0,6 C 2,5 C 4,2 km/h (1 Bft)
04.12.2020 22:26 3,0 C 4,3 C 2,1 C 2,7 C 2,1 C 0,0 C 78 % 82 % 997,1 hPa 0,0 l/m 4,0 km/h (1 Bft) NW 315 0 min -0,5 C 2,1 C 2,6 km/h (1 Bft)
04.12.2020 22:38 2,8 C 4,3 C 1,6 C 2,6 C 2,2 C 0,0 C 77 % 82 % 996,9 hPa 0,0 l/m 1,1 km/h (1 Bft) NO 45 0 min -0,8 C 2,2 C 3,1 km/h (1 Bft)
04.12.2020 22:40 2,8 C 4,3 C 1,6 C 2,6 C 2,2 C 0,0 C 77 % 82 % 996,9 hPa 0,0 l/m 1,1 km/h (1 Bft) NO 45 0 min -0,8 C 2,2 C 3,1 km/h (1 Bft)
04.12.2020 22:45 2,7 C 4,3 C 1,6 C 2,5 C 2,1 C 0,0 C 78 % 83 % 996,9 hPa 0,0 l/m 1,9 km/h (1 Bft) O-NO 67 0 min -0,7 C 2,1 C 2,9 km/h (1 Bft)
04.12.2020 22:50 2,7 C 4,4 C 1,6 C 2,5 C 2,1 C 0,0 C 78 % 83 % 996,8 hPa 0,0 l/m 2,7 km/h (1 Bft) O-NO 67 0 min -0,7 C 2,1 C 0,0 km/h (0 Bft)
04.12.2020 22:55 2,6 C 4,4 C 1,4 C 2,4 C 2,0 C 0,0 C 78 % 83 % 996,8 hPa 0,0 l/m 1,1 km/h (1 Bft) N-NO 22 0 min -0,8 C 2,0 C 1,6 km/h (1 Bft)
04.12.2020 23:00 2,4 C 4,4 C 1,3 C 2,2 C 1,9 C 0,0 C 78 % 83 % 996,8 hPa 0,0 l/m 0,8 km/h (0 Bft) O-NO 67 0 min -1,0 C 1,9 C 3,1 km/h (1 Bft)
04.12.2020 23:05 2,5 C 4,4 C 1,3 C 2,3 C 1,8 C 0,0 C 78 % 84 % 996,8 hPa 0,0 l/m 1,4 km/h (1 Bft) NO 45 0 min -0,9 C 1,8 C 2,1 km/h (1 Bft)
04.12.2020 23:10 2,3 C 4,4 C 1,3 C 2,0 C 1,5 C 0,0 C 78 % 84 % 996,8 hPa 0,0 l/m 2,7 km/h (1 Bft) O-NO 67 0 min -1,1 C 1,5 C 5,6 km/h (1 Bft)
04.12.2020 23:15 2,4 C 4,4 C 1,7 C 1,8 C 0,6 C 0,0 C 79 % 84 % 996,8 hPa 0,0 l/m 4,8 km/h (1 Bft) O-NO 67 0 min -0,9 C -0,8 C 9,3 km/h (2 Bft)
04.12.2020 23:20 2,5 C 4,4 C 1,7 C 1,8 C 0,3 C 0,0 C 79 % 84 % 996,8 hPa 0,0 l/m 6,0 km/h (2 Bft) O-NO 67 0 min -0,8 C -1,7 C 8,9 km/h (2 Bft)
04.12.2020 23:25 2,4 C 4,4 C 1,7 C 1,7 C 0,3 C 0,0 C 79 % 84 % 996,8 hPa 0,0 l/m 6,6 km/h (2 Bft) NO 45 0 min -0,9 C -1,9 C 9,8 km/h (2 Bft)
04.12.2020 23:30 2,5 C 4,4 C 1,8 C 2,0 C 0,9 C 0,0 C 79 % 84 % 996,8 hPa 0,0 l/m 5,5 km/h (1 Bft) N-NO 22 0 min -0,8 C -0,8 C 0,0 km/h (0 Bft)
04.12.2020 23:35 2,5 C 4,4 C 1,8 C 2,3 C 1,9 C 0,0 C 79 % 84 % 996,8 hPa 0,0 l/m 3,2 km/h (1 Bft) NO 45 0 min -0,8 C 1,9 C 4,8 km/h (1 Bft)
04.12.2020 23:40 2,5 C 4,3 C 1,9 C 2,3 C 2,0 C 0,0 C 79 % 84 % 996,8 hPa 0,0 l/m 3,1 km/h (1 Bft) O-NO 67 0 min -0,8 C 2,0 C 6,8 km/h (2 Bft)
04.12.2020 23:45 2,6 C 4,3 C 1,9 C 2,1 C 1,0 C 0,0 C 79 % 84 % 996,8 hPa 0,0 l/m 5,3 km/h (1 Bft) NO 45 0 min -0,7 C -0,6 C 6,1 km/h (2 Bft)
04.12.2020 23:50 2,7 C 4,3 C 1,9 C 2,2 C 1,1 C 0,0 C 79 % 84 % 996,8 hPa 0,0 l/m 5,1 km/h (1 Bft) N-NO 22 0 min -0,6 C -0,4 C 4,3 km/h (1 Bft)
04.12.2020 23:55 2,6 C 4,3 C 1,9 C 2,2 C 1,4 C 0,0 C 79 % 84 % 996,8 hPa 0,0 l/m 4,5 km/h (1 Bft) NO 45 0 min -0,7 C 1,4 C 4,2 km/h (1 Bft)
_ Min-Zeit 02:10 07:55 01:55 01:50 01:45 00:00 14:20 13:45 14:30 - 01:15 - - - 01:50 01:45 01:05
Minimum _ -3,4 C 3,3 C -4,6 C -3,9 C -5,0 C 0,0 C 73 % 75 % 996,1 hPa - 0,0 km/h (0 Bft) - - - -6,2 C -5,0 C 0,0 km/h (0 Bft)
_ Max-Zeit 13:55 22:50 13:45 13:50 13:50 13:50 07:20 03:00 00:00 00:00 23:25 - - 00:00 13:50 13:50 09:15
Maximum _ 4,1 C 4,4 C 4,2 C 7,2 C 7,2 C 3,2 C 83 % 89 % 1001,1 hPa 0,0 l/m 6,6 km/h
NO (2 Bft)
- - 0 min -0,0 C 7,2 C 19,3 km/h
W-NW (3 Bft)
Durchschnitt _ 1,2 C 3,8 C 0,3 C 1,2 C 0,7 C 0,2 C 79 % 83 % 997,3 hPa #0,0 l/m 1,9 km/h (1 Bft) O-NO - #0 min. -2,1 C 0,6 C 2,7 km/h (1 Bft)
2020 www.wetterstation-wechselburg.de